Location: Casa Rossa
(45.2389°N, 12.2056°E)
Time: 23:43:53
(UTC+00:00)

Cosmos 1263 - Pass Details

Date: 14 July 2020
Orbit: 384 x 1340 km, 82.9° (Epoch: 14 August)

Event Time Altitude Azimuth Distance (km) Brightness Sun altitude
Rises 02:13:57 0° 352° (N) 2,303 8.6 -12.0°
Reaches altitude 10° 02:15:56 10° 353° (N) 1,422 7.5 -11.7°
Maximum altitude 02:18:55 86° 78° (ENE) 397 4.1 -11.4°
Drops below altitude 10° 02:22:02 10° 172° (S) 1,484 6.7 -11.0°
Enters shadow 02:22:45 - 172° (S) 1,798 7.1 -10.9°
